TimeMDT,TemperatureF,Dew PointF,Humidity,Sea Level PressureIn,VisibilityMPH,Wind Direction,Wind SpeedMPH,Gust SpeedMPH,PrecipitationIn,Events,Conditions,WindDirDegrees,DateUTC
12:48 AM,42.1,39.9,92,29.62,-9999.0,Calm,Calm,-,N/A,,Unknown,0,2011-10-11 06:48:00
1:48 AM,44.1,41.0,89,29.61,-9999.0,Calm,Calm,-,N/A,,Unknown,0,2011-10-11 07:48:00
2:48 AM,44.1,39.9,85,29.60,-9999.0,Calm,Calm,-,N/A,,Unknown,0,2011-10-11 08:48:00
3:48 AM,42.1,39.0,89,29.61,-9999.0,Calm,Calm,-,N/A,,Unknown,0,2011-10-11 09:48:00
4:48 AM,45.0,39.0,80,29.62,-9999.0,West,3.5,-,N/A,,Unknown,280,2011-10-11 10:48:00
5:48 AM,42.1,39.0,89,29.62,-9999.0,South,3.5,-,N/A,,Unknown,190,2011-10-11 11:48:00
6:48 AM,43.0,39.9,89,29.63,-9999.0,Calm,Calm,-,N/A,,Unknown,0,2011-10-11 12:48:00
7:48 AM,42.1,39.0,89,29.65,-9999.0,WNW,3.5,-,N/A,,Unknown,290,2011-10-11 13:48:00
8:48 AM,50.0,42.1,74,29.63,-9999.0,West,5.8,-,N/A,,Unknown,260,2011-10-11 14:48:00
9:48 AM,55.0,43.0,64,29.63,-9999.0,West,3.5,-,N/A,,Unknown,260,2011-10-11 15:48:00
10:48 AM,62.1,39.9,44,29.63,-9999.0,West,10.4,-,N/A,,Unknown,260,2011-10-11 16:48:00
11:48 AM,64.0,39.0,40,29.62,-9999.0,WSW,9.2,-,N/A,,Unknown,250,2011-10-11 17:48:00
12:48 PM,66.0,37.0,34,29.62,-9999.0,West,11.5,19.6,N/A,,Unknown,270,2011-10-11 18:48:00
1:48 PM,68.0,37.9,33,29.60,-9999.0,WNW,9.2,-,N/A,,Unknown,300,2011-10-11 19:48:00
2:48 PM,66.0,39.0,37,29.61,-9999.0,WNW,13.8,-,N/A,,Unknown,300,2011-10-11 20:48:00
2:54 PM,64.4,39.2,40,29.60,-9999.0,WNW,10.4,21.9,N/A,,Unknown,290,2011-10-11 20:54:00
3:48 PM,64.0,37.0,37,29.63,-9999.0,WNW,12.7,-,N/A,,Unknown,300,2011-10-11 21:48:00
4:48 PM,64.0,36.0,35,29.63,-9999.0,West,6.9,-,N/A,,Unknown,280,2011-10-11 22:48:00
5:48 PM,57.9,42.1,56,29.68,-9999.0,WNW,13.8,28.8,N/A,,Unknown,300,2011-10-11 23:48:00
6:48 PM,51.1,43.0,74,29.70,-9999.0,WNW,3.5,-,N/A,,Unknown,290,2011-10-12 00:48:00
7:48 PM,48.9,43.0,80,29.72,-9999.0,WNW,6.9,-,N/A,,Unknown,300,2011-10-12 01:48:00
8:48 PM,46.9,42.1,83,29.73,-9999.0,West,3.5,-,N/A,,Unknown,280,2011-10-12 02:48:00
9:48 PM,46.0,42.1,86,29.74,-9999.0,WNW,5.8,-,N/A,,Unknown,290,2011-10-12 03:48:00
10:48 PM,50.0,41.0,71,29.75,-9999.0,West,6.9,-,N/A,,Unknown,270,2011-10-12 04:48:00
11:48 PM,52.0,37.9,59,29.77,-9999.0,West,11.5,-,N/A,,Unknown,280,2011-10-12 05:48:00